• In Belarus
  • List of Countries
  • For 7 days
  • Water Temperature
  • Satellite Maps
  • Weather Map
  • Weather Widgets
  • user-avatar
    Login

    Hourly Weather La Massana

    Today, 18 January, Thursday

    Time Temperature Precipitation Wind Pressure Humidity
    00:00 -6°C° 0 mm 2 mps 612 mmHg 70%
    01:00 -6°C° 0 mm 2 mps 612 mmHg 68%
    02:00 -4°C° 0 mm 1 mps 611 mmHg 65%
    03:00 -4°C° 0 mm 1 mps 611 mmHg 63%
    04:00 -4°C° 0 mm 1 mps 611 mmHg 62%
    05:00 -4°C° 0 mm 1 mps 611 mmHg 62%
    06:00 -5°C° 0 mm 2 mps 611 mmHg 56%
    07:00 -2°C° 0 mm 1 mps 612 mmHg 57%
    08:00 -1°C° 0 mm 1 mps 612 mmHg 57%
    09:00 0°C° 0 mm 1 mps 613 mmHg 57%
    10:00 +2°C° 0 mm 1 mps 613 mmHg 58%
    11:00 +3°C° 0 mm 1 mps 613 mmHg 59%
    12:00 +4°C° 0 mm 1 mps 614 mmHg 59%
    13:00 +4°C° 0 mm 1 mps 613 mmHg 61%
    14:00 +4°C° 0 mm 1 mps 613 mmHg 63%
    15:00 +4°C° 0 mm 1 mps 612 mmHg 65%
    16:00 +2°C° 0 mm 1 mps 612 mmHg 70%
    17:00 +1°C° 0 mm 1 mps 611 mmHg 75%
    18:00 -3°C° 0 mm 2 mps 610 mmHg 80%
    19:00 -3°C° 0 mm 2 mps 610 mmHg 79%
    20:00 -3°C° 0 mm 2 mps 610 mmHg 78%
    21:00 -3°C° 0 mm 2 mps 610 mmHg 77%
    22:00 -3°C° 0 mm 2 mps 610 mmHg 78%
    23:00 -3°C° 0 mm 2 mps 610 mmHg 79%

    Tomorrow, 19 January, Friday

    Time Temperature Precipitation Wind Pressure Humidity
    00:00 -3°C° 0 mm 2 mps 610 mmHg 80%
    01:00 -3°C° 0 mm 2 mps 609 mmHg 81%
    02:00 -3°C° 0 mm 2 mps 609 mmHg 82%
    03:00 -3°C° 0 mm 2 mps 609 mmHg 83%
    04:00 -3°C° 0 mm 2 mps 609 mmHg 83%
    05:00 -3°C° 0 mm 2 mps 609 mmHg 83%
    06:00 -3°C° 0 mm 2 mps 609 mmHg 83%
    07:00 -2°C° 0.1 mm 2 mps 609 mmHg 81%
    08:00 -2°C° 0.1 mm 2 mps 610 mmHg 80%
    09:00 -1°C° 0.1 mm 2 mps 610 mmHg 78%
    10:00 +1°C° 0 mm 2 mps 611 mmHg 75%
    11:00 +2°C° 0 mm 2 mps 611 mmHg 72%
    12:00 +3°C° 0 mm 2 mps 612 mmHg 68%
    13:00 +2°C° 0 mm 3 mps 611 mmHg 67%
    14:00 +1°C° 0 mm 3 mps 611 mmHg 66%
    15:00 +1°C° 0 mm 3 mps 611 mmHg 66%
    16:00 -1°C° 0 mm 3 mps 611 mmHg 70%
    17:00 -2°C° 0 mm 3 mps 610 mmHg 74%
    18:00 -5°C° 0 mm 3 mps 610 mmHg 79%
    19:00 -5°C° 0 mm 3 mps 610 mmHg 78%
    20:00 -5°C° 0 mm 3 mps 610 mmHg 77%
    21:00 -5°C° 0 mm 3 mps 611 mmHg 76%
    22:00 -5°C° 0 mm 3 mps 611 mmHg 77%
    23:00 -5°C° 0 mm 3 mps 611 mmHg 77%

    Day after tomorrow, 20 January, Saturday

    Time Temperature Precipitation Wind Pressure Humidity
    00:00 -5°C° 0 mm 3 mps 611 mmHg 78%
    01:00 -4°C° 0 mm 2 mps 611 mmHg 79%
    02:00 -4°C° 0 mm 2 mps 611 mmHg 79%
    03:00 -5°C° 0 mm 2 mps 611 mmHg 80%
    04:00 -5°C° 0 mm 2 mps 610 mmHg 80%
    05:00 -5°C° 0 mm 2 mps 610 mmHg 79%
    06:00 -5°C° 0 mm 2 mps 610 mmHg 79%
    07:00 -4°C° 0 mm 2 mps 610 mmHg 76%
    08:00 -1°C° 0 mm 1 mps 611 mmHg 72%
    09:00 0°C° 0 mm 1 mps 611 mmHg 68%
    10:00 -1°C° 0.1 mm 2 mps 611 mmHg 69%
    11:00 +1°C° 0.1 mm 2 mps 611 mmHg 71%
    12:00 +1°C° 0.1 mm 3 mps 611 mmHg 72%
    13:00 +1°C° 0.8 mm 3 mps 610 mmHg 75%
    14:00 +1°C° 0.8 mm 3 mps 610 mmHg 78%
    15:00 +1°C° 0.8 mm 3 mps 609 mmHg 81%
    16:00 0°C° 0.8 mm 4 mps 609 mmHg 84%
    17:00 0°C° 0.8 mm 4 mps 609 mmHg 87%
    18:00 -1°C° 0.8 mm 4 mps 609 mmHg 90%
    19:00 -1°C° 0.5 mm 4 mps 610 mmHg 90%
    20:00 -1°C° 0.5 mm 4 mps 610 mmHg 91%
    21:00 -1°C° 0.5 mm 4 mps 611 mmHg 91%
    22:00 -1°C° 0.5 mm 4 mps 611 mmHg 91%
    23:00 -1°C° 0.5 mm 4 mps 611 mmHg 91%

    21 January, Sunday

    Time Temperature Precipitation Wind Pressure Humidity
    00:00 +1°C° 0.5 mm 3 mps 612 mmHg 90%
    01:00 +1°C° 0.6 mm 3 mps 612 mmHg 90%
    02:00 +1°C° 0.6 mm 3 mps 612 mmHg 90%
    03:00 +1°C° 0.6 mm 3 mps 612 mmHg 90%
    04:00 +1°C° 0.4 mm 3 mps 612 mmHg 90%
    05:00 +1°C° 0.4 mm 3 mps 613 mmHg 89%
    06:00 0°C° 0.4 mm 3 mps 613 mmHg 89%
    07:00 +1°C° 0.2 mm 3 mps 613 mmHg 88%
    08:00 +1°C° 0.2 mm 3 mps 614 mmHg 87%
    09:00 +1°C° 0.2 mm 3 mps 614 mmHg 86%
    10:00 +2°C° 0.2 mm 3 mps 614 mmHg 84%
    11:00 +3°C° 0.2 mm 3 mps 615 mmHg 81%
    12:00 +3°C° 0.2 mm 3 mps 615 mmHg 79%
    13:00 +3°C° 0.1 mm 3 mps 615 mmHg 78%
    14:00 +3°C° 0.1 mm 3 mps 615 mmHg 77%
    15:00 +3°C° 0.1 mm 3 mps 615 mmHg 77%
    16:00 +2°C° 0 mm 3 mps 615 mmHg 79%
    17:00 +1°C° 0 mm 3 mps 615 mmHg 82%
    18:00 0°C° 0 mm 3 mps 615 mmHg 84%
    19:00 0°C° 0 mm 3 mps 615 mmHg 84%
    20:00 0°C° 0 mm 3 mps 615 mmHg 83%
    21:00 -1°C° 0 mm 3 mps 615 mmHg 83%
    22:00 -1°C° 0 mm 3 mps 615 mmHg 83%
    23:00 -1°C° 0 mm 3 mps 615 mmHg 83%

    22 January, Monday

    Time Temperature Precipitation Wind Pressure Humidity
    00:00 -1°C° 0 mm 3 mps 615 mmHg 84%
    01:00 -1°C° 0 mm 3 mps 615 mmHg 84%
    02:00 -1°C° 0 mm 3 mps 615 mmHg 84%
    03:00 -1°C° 0 mm 3 mps 615 mmHg 84%
    04:00 -2°C° 0 mm 3 mps 615 mmHg 83%
    05:00 -2°C° 0 mm 3 mps 615 mmHg 83%
    06:00 -2°C° 0 mm 3 mps 615 mmHg 82%
    07:00 -1°C° 0 mm 2 mps 615 mmHg 80%
    08:00 +1°C° 0 mm 2 mps 616 mmHg 77%
    09:00 +2°C° 0 mm 2 mps 616 mmHg 75%
    10:00 +3°C° 0 mm 2 mps 617 mmHg 71%
    11:00 +5°C° 0 mm 2 mps 617 mmHg 67%
    12:00 +6°C° 0 mm 2 mps 618 mmHg 63%
    13:00 +6°C° 0 mm 2 mps 618 mmHg 65%
    14:00 +6°C° 0 mm 2 mps 617 mmHg 66%
    15:00 +6°C° 0 mm 2 mps 617 mmHg 67%
    16:00 +4°C° 0 mm 2 mps 616 mmHg 71%
    17:00 +3°C° 0 mm 2 mps 616 mmHg 76%
    18:00 +1°C° 0 mm 2 mps 615 mmHg 81%
    19:00 +1°C° 0 mm 2 mps 615 mmHg 78%
    20:00 -1°C° 0 mm 2 mps 616 mmHg 75%
    21:00 -1°C° 0 mm 2 mps 616 mmHg 72%
    22:00 -1°C° 0 mm 2 mps 616 mmHg 69%
    23:00 -1°C° 0 mm 2 mps 616 mmHg 66%

    23 January, Tuesday

    Time Temperature Precipitation Wind Pressure Humidity
    00:00 -1°C° 0 mm 2 mps 616 mmHg 63%
    01:00 -1°C° 0 mm 2 mps 616 mmHg 62%
    02:00 -1°C° 0 mm 2 mps 615 mmHg 62%
    03:00 -1°C° 0 mm 2 mps 615 mmHg 61%
    04:00 -2°C° 0 mm 2 mps 615 mmHg 61%
    05:00 -2°C° 0 mm 2 mps 616 mmHg 60%
    06:00 -2°C° 0 mm 2 mps 616 mmHg 60%
    07:00 -1°C° 0 mm 2 mps 616 mmHg 59%
    08:00 +1°C° 0 mm 2 mps 617 mmHg 58%
    09:00 +2°C° 0 mm 2 mps 618 mmHg 56%
    10:00 +5°C° 0 mm 1 mps 618 mmHg 53%
    11:00 +7°C° 0 mm 1 mps 619 mmHg 49%
    12:00 +8°C° 0 mm 1 mps 619 mmHg 46%
    13:00 +8°C° 0 mm 1 mps 619 mmHg 48%
    14:00 +8°C° 0 mm 1 mps 619 mmHg 51%
    15:00 +8°C° 0 mm 1 mps 618 mmHg 53%
    16:00 +5°C° 0 mm 0 mps 617 mmHg 58%
    17:00 +3°C° 0 mm 0 mps 617 mmHg 64%
    18:00 +1°C° 0 mm 0 mps 616 mmHg 69%
    19:00 +2°C° 0 mm 1 mps 616 mmHg 68%
    20:00 +1°C° 0 mm 1 mps 616 mmHg 67%
    21:00 +1°C° 0 mm 1 mps 616 mmHg 66%
    22:00 +1°C° 0 mm 1 mps 616 mmHg 65%
    23:00 +1°C° 0 mm 1 mps 615 mmHg 64%
    Show more